Time,TemperatureF,DewpointF,PressureIn,WindDirection,WindDirectionDegrees,WindSpeedMPH,WindSpeedGustMPH,Humidity,HourlyPrecipIn,Conditions,Clouds,dailyrainin,SoftwareType,DateUTC
2013-02-11 00:00:00,45.8,40.3,29.63,SSW,203,7.0,19.0,81,0.00,,,0.00,Wunderground v.1.12,2013-02-11 05:00:00,
2013-02-11 00:10:00,45.8,40.0,29.63,SW,227,8.0,8.0,80,0.00,,,0.00,Wunderground v.1.12,2013-02-11 05:10:00,
2013-02-11 00:20:00,45.8,40.3,29.63,SSW,206,8.0,12.0,81,0.00,,,0.00,Wunderground v.1.12,2013-02-11 05:20:00,
2013-02-11 00:30:00,46.0,40.5,29.63,SSW,203,9.0,24.0,81,0.00,,,0.00,Wunderground v.1.12,2013-02-11 05:30:00,
2013-02-11 00:40:00,46.1,40.6,29.63,SSW,192,9.0,9.0,81,0.00,,,0.00,Wunderground v.1.12,2013-02-11 05:40:00,
2013-02-11 00:50:00,46.0,40.8,29.63,SSW,193,7.0,17.0,82,0.00,,,0.00,Wunderground v.1.12,2013-02-11 05:50:00,
2013-02-11 01:00:00,46.0,40.8,29.64,SSW,203,8.0,22.0,82,0.00,,,0.00,Wunderground v.1.12,2013-02-11 06:00:00,
2013-02-11 01:10:00,46.0,41.1,29.64,South,175,6.0,6.0,83,0.00,,,0.00,Wunderground v.1.12,2013-02-11 06:10:00,
2013-02-11 01:20:00,46.0,41.1,29.63,South,179,7.0,7.0,83,0.00,,,0.00,Wunderground v.1.12,2013-02-11 06:20:00,
2013-02-11 01:30:00,46.0,41.1,29.63,SSW,203,7.0,18.0,83,0.00,,,0.00,Wunderground v.1.12,2013-02-11 06:30:00,
2013-02-11 01:40:00,46.0,41.4,29.63,SSW,210,7.0,14.0,84,0.00,,,0.00,Wunderground v.1.12,2013-02-11 06:40:00,
2013-02-11 01:50:00,45.8,41.2,29.62,South,182,6.0,8.0,84,0.00,,,0.00,Wunderground v.1.12,2013-02-11 06:50:00,
2013-02-11 02:00:00,45.8,41.5,29.62,South,180,7.0,19.0,85,0.00,,,0.00,Wunderground v.1.12,2013-02-11 07:00:00,
2013-02-11 02:10:00,46.0,41.7,29.62,SW,223,7.0,7.0,85,0.00,,,0.00,Wunderground v.1.12,2013-02-11 07:10:00,
2013-02-11 02:20:00,45.8,41.5,29.61,SSW,203,6.0,14.0,85,0.00,,,0.00,Wunderground v.1.12,2013-02-11 07:20:00,
2013-02-11 02:30:00,46.0,41.7,29.60,South,180,7.0,16.0,85,0.00,,,0.00,Wunderground v.1.12,2013-02-11 07:30:00,
2013-02-11 02:40:00,46.1,41.8,29.60,SSW,192,7.0,8.0,85,0.00,,,0.00,Wunderground v.1.12,2013-02-11 07:40:00,
2013-02-11 02:50:00,46.1,42.1,29.60,SW,236,5.0,8.0,86,0.00,,,0.00,Wunderground v.1.12,2013-02-11 07:50:00,
2013-02-11 03:00:00,46.1,42.1,29.60,SSW,203,6.0,15.0,86,0.00,,,0.00,Wunderground v.1.12,2013-02-11 08:00:00,
2013-02-11 03:10:00,46.1,42.1,29.60,South,178,6.0,6.0,86,0.00,,,0.00,Wunderground v.1.12,2013-02-11 08:10:00,
2013-02-11 03:20:00,46.1,42.1,29.59,SSW,203,6.0,22.0,86,0.00,,,0.00,Wunderground v.1.12,2013-02-11 08:20:00,
2013-02-11 03:30:00,46.1,42.1,29.59,South,180,6.0,15.0,86,0.00,,,0.00,Wunderground v.1.12,2013-02-11 08:30:00,
2013-02-11 03:40:00,46.1,42.1,29.59,South,176,6.0,6.0,86,0.00,,,0.00,Wunderground v.1.12,2013-02-11 08:40:00,
2013-02-11 03:50:00,46.2,42.2,29.58,South,181,6.0,6.0,86,0.00,,,0.00,Wunderground v.1.12,2013-02-11 08:50:00,
2013-02-11 04:00:00,46.2,42.5,29.57,SSW,203,6.0,14.0,87,0.00,,,0.00,Wunderground v.1.12,2013-02-11 09:00:00,
2013-02-11 04:10:00,46.4,42.7,29.57,South,179,5.0,5.0,87,0.00,,,0.00,Wunderground v.1.12,2013-02-11 09:10:00,
2013-02-11 04:20:00,46.2,42.5,29.56,South,191,4.0,4.0,87,0.00,,,0.00,Wunderground v.1.12,2013-02-11 09:20:00,
2013-02-11 04:30:00,46.1,42.4,29.55,SSW,203,4.0,12.0,87,0.00,,,0.00,Wunderground v.1.12,2013-02-11 09:30:00,
2013-02-11 04:40:00,46.0,42.3,29.55,South,176,5.0,5.0,87,0.00,,,0.00,Wunderground v.1.12,2013-02-11 09:40:00,
2013-02-11 04:50:00,46.1,42.4,29.56,SSW,213,5.0,5.0,87,0.00,,,0.00,Wunderground v.1.12,2013-02-11 09:50:00,
2013-02-11 05:00:00,46.0,42.3,29.55,SSW,203,4.0,12.0,87,0.00,,,0.00,Wunderground v.1.12,2013-02-11 10:00:00,
2013-02-11 05:10:00,45.8,42.2,29.55,SSW,209,5.0,6.0,87,0.00,,,0.00,Wunderground v.1.12,2013-02-11 10:10:00,
2013-02-11 05:20:00,45.8,42.2,29.55,SW,224,6.0,6.0,87,0.00,,,0.00,Wunderground v.1.12,2013-02-11 10:20:00,
2013-02-11 05:30:00,45.8,42.4,29.55,SSW,203,5.0,14.0,88,0.00,,,0.00,Wunderground v.1.12,2013-02-11 10:30:00,
2013-02-11 05:40:00,46.0,42.6,29.55,SW,227,5.0,5.0,88,0.00,,,0.00,Wunderground v.1.12,2013-02-11 10:40:00,
2013-02-11 05:50:00,46.1,42.7,29.54,SSW,199,4.0,5.0,88,0.00,,,0.00,Wunderground v.1.12,2013-02-11 10:50:00,
2013-02-11 06:00:00,46.4,42.7,29.55,SW,225,6.0,18.0,87,0.00,,,0.00,Wunderground v.1.12,2013-02-11 11:00:00,
2013-02-11 06:10:00,46.4,42.4,29.55,SSW,210,8.0,8.0,86,0.00,,,0.00,Wunderground v.1.12,2013-02-11 11:10:00,
2013-02-11 06:20:00,46.5,42.2,29.54,SSW,213,8.0,8.0,85,0.00,,,0.00,Wunderground v.1.12,2013-02-11 11:20:00,
2013-02-11 06:30:00,46.8,41.9,29.54,SW,225,7.0,16.0,83,0.00,,,0.00,Wunderground v.1.12,2013-02-11 11:30:00,
2013-02-11 06:40:00,47.0,41.8,29.54,SSW,195,6.0,7.0,82,0.00,,,0.00,Wunderground v.1.12,2013-02-11 11:40:00,
2013-02-11 06:50:00,47.1,41.9,29.54,SW,236,8.0,16.0,82,0.00,,,0.00,Wunderground v.1.12,2013-02-11 11:50:00,
2013-02-11 07:00:00,47.3,41.1,29.55,SW,225,10.0,25.0,79,0.00,,,0.00,Wunderground v.1.12,2013-02-11 12:00:00,
2013-02-11 07:10:00,47.3,40.1,29.55,West,264,11.0,11.0,76,0.00,,,0.00,Wunderground v.1.12,2013-02-11 12:10:00,
2013-02-11 07:20:00,46.5,37.6,29.57,West,270,11.0,27.0,71,0.00,,,0.00,Wunderground v.1.12,2013-02-11 12:20:00,
2013-02-11 07:30:00,44.5,33.8,29.58,WSW,248,13.0,29.0,66,0.00,,,0.00,Wunderground v.1.12,2013-02-11 12:30:00,
2013-02-11 07:40:00,43.5,32.5,29.58,NW,311,11.0,11.0,65,0.00,,,0.00,Wunderground v.1.12,2013-02-11 12:40:00,
2013-02-11 07:50:00,43.1,32.1,29.59,West,263,10.0,12.0,65,0.00,,,0.00,Wunderground v.1.12,2013-02-11 12:50:00,
2013-02-11 08:10:00,42.2,29.3,29.60,WNW,285,14.0,14.0,60,0.00,,,0.00,Wunderground v.1.12,2013-02-11 13:10:00,
2013-02-11 08:20:00,41.9,29.4,29.59,SW,219,10.0,11.0,61,0.00,,,0.00,Wunderground v.1.12,2013-02-11 13:20:00,
2013-02-11 08:30:00,41.8,29.7,29.59,WSW,248,10.0,26.0,62,0.00,,,0.00,Wunderground v.1.12,2013-02-11 13:30:00,
2013-02-11 08:40:00,41.8,29.7,29.59,SW,223,9.0,9.0,62,0.00,,,0.00,Wunderground v.1.12,2013-02-11 13:40:00,
2013-02-11 08:50:00,41.6,29.1,29.59,WSW,248,11.0,31.0,61,0.00,,,0.00,Wunderground v.1.12,2013-02-11 13:50:00,
2013-02-11 09:00:00,41.6,29.5,29.60,WSW,248,11.0,29.0,62,0.00,,,0.00,Wunderground v.1.12,2013-02-11 14:00:00,
2013-02-11 09:10:00,41.5,29.4,29.60,West,268,11.0,12.0,62,0.00,,,0.00,Wunderground v.1.12,2013-02-11 14:10:00,
2013-02-11 09:20:00,41.2,29.5,29.60,WSW,258,12.0,16.0,63,0.00,,,0.00,Wunderground v.1.12,2013-02-11 14:20:00,
2013-02-11 09:30:00,40.9,29.7,29.61,WSW,248,11.0,28.0,64,0.00,,,0.00,Wunderground v.1.12,2013-02-11 14:30:00,
2013-02-11 09:40:00,40.3,28.3,29.61,SW,226,17.0,20.0,62,0.00,,,0.00,Wunderground v.1.12,2013-02-11 14:40:00,
2013-02-11 09:50:00,39.5,27.2,29.61,SSW,213,18.0,18.0,61,0.00,,,0.00,Wunderground v.1.12,2013-02-11 14:50:00,
2013-02-11 10:10:00,39.1,27.2,29.62,WSW,248,15.0,34.0,62,0.00,,,0.00,Wunderground v.1.12,2013-02-11 15:10:00,
2013-02-11 10:20:00,38.3,26.8,29.63,West,272,12.0,12.0,63,0.00,,,0.00,Wunderground v.1.12,2013-02-11 15:20:00,
2013-02-11 10:30:00,38.0,26.1,29.64,WSW,248,14.0,29.0,62,0.00,,,0.00,Wunderground v.1.12,2013-02-11 15:30:00,
2013-02-11 10:40:00,37.8,26.3,29.64,WSW,241,14.0,14.0,63,0.00,,,0.00,Wunderground v.1.12,2013-02-11 15:40:00,
2013-02-11 10:50:00,37.6,26.1,29.64,West,260,13.0,13.0,63,0.00,,,0.00,Wunderground v.1.12,2013-02-11 15:50:00,
2013-02-11 11:00:00,37.3,26.2,29.65,WSW,248,15.0,36.0,64,0.00,,,0.00,Wunderground v.1.12,2013-02-11 16:00:00,
2013-02-11 11:10:00,37.2,25.8,29.65,West,265,17.0,17.0,63,0.00,,,0.00,Wunderground v.1.12,2013-02-11 16:10:00,
2013-02-11 11:20:00,37.2,25.4,29.65,WSW,248,16.0,42.0,62,0.00,,,0.00,Wunderground v.1.12,2013-02-11 16:20:00,
2013-02-11 11:30:00,36.9,25.1,29.66,WSW,248,15.0,32.0,62,0.00,,,0.00,Wunderground v.1.12,2013-02-11 16:30:00,
2013-02-11 11:40:00,36.5,24.3,29.66,WSW,257,12.0,17.0,61,0.00,,,0.00,Wunderground v.1.12,2013-02-11 16:40:00,
2013-02-11 11:50:00,36.5,24.3,29.66,SW,225,11.0,34.0,61,0.00,,,0.00,Wunderground v.1.12,2013-02-11 16:50:00,
2013-02-11 12:00:00,36.2,24.0,29.67,SW,225,13.0,27.0,61,0.00,,,0.00,Wunderground v.1.12,2013-02-11 17:00:00,
2013-02-11 12:10:00,36.0,24.6,29.66,SW,217,10.0,12.0,63,0.00,,,0.00,Wunderground v.1.12,2013-02-11 17:10:00,
2013-02-11 12:20:00,36.0,25.4,29.66,West,261,12.0,19.0,65,0.00,,,0.00,Wunderground v.1.12,2013-02-11 17:20:00,
2013-02-11 12:40:00,36.2,25.2,29.66,WSW,251,12.0,19.0,64,0.00,,,0.00,Wunderground v.1.12,2013-02-11 17:40:00,
2013-02-11 12:50:00,36.2,25.2,29.66,SSW,208,12.0,12.0,64,0.00,,,0.00,Wunderground v.1.12,2013-02-11 17:50:00,
2013-02-11 13:00:00,36.2,25.9,29.66,WSW,248,12.0,27.0,66,0.00,,,0.00,Wunderground v.1.12,2013-02-11 18:00:00,
2013-02-11 13:10:00,36.0,26.1,29.66,WSW,241,10.0,26.0,67,0.00,,,0.00,Wunderground v.1.12,2013-02-11 18:10:00,
2013-02-11 13:20:00,35.9,26.0,29.67,WSW,248,11.0,33.0,67,0.00,,,0.00,Wunderground v.1.12,2013-02-11 18:20:00,
2013-02-11 13:30:00,35.6,25.0,29.67,WSW,248,13.0,30.0,65,0.00,,,0.00,Wunderground v.1.12,2013-02-11 18:30:00,
2013-02-11 13:40:00,35.8,24.0,29.67,SW,215,13.0,14.0,62,0.00,,,0.00,Wunderground v.1.12,2013-02-11 18:40:00,
2013-02-11 13:50:00,35.6,24.6,29.68,West,278,13.0,13.0,64,0.00,,,0.00,Wunderground v.1.12,2013-02-11 18:50:00,
2013-02-11 14:00:00,35.3,24.3,29.69,SW,225,13.0,25.0,64,0.00,,,0.00,Wunderground v.1.12,2013-02-11 19:00:00,
2013-02-11 14:10:00,35.6,24.6,29.69,WSW,237,11.0,11.0,64,0.00,,,0.00,Wunderground v.1.12,2013-02-11 19:10:00,
2013-02-11 14:20:00,35.8,24.0,29.67,SW,225,12.0,28.0,62,0.00,,,0.00,Wunderground v.1.12,2013-02-11 19:20:00,
2013-02-11 14:30:00,36.0,23.4,29.67,SW,225,14.0,27.0,60,0.00,,,0.00,Wunderground v.1.12,2013-02-11 19:30:00,
2013-02-11 14:40:00,36.2,24.0,29.67,SW,230,13.0,13.0,61,0.00,,,0.00,Wunderground v.1.12,2013-02-11 19:40:00,
2013-02-11 14:50:00,36.0,24.2,29.67,West,261,14.0,14.0,62,0.00,,,0.00,Wunderground v.1.12,2013-02-11 19:50:00,
2013-02-11 15:00:00,35.9,24.5,29.68,SW,225,13.0,28.0,63,0.00,,,0.00,Wunderground v.1.12,2013-02-11 20:00:00,
2013-02-11 15:10:00,35.9,24.9,29.68,West,261,12.0,17.0,64,0.00,,,0.00,Wunderground v.1.12,2013-02-11 20:10:00,
2013-02-11 15:20:00,35.8,24.8,29.69,West,271,13.0,13.0,64,0.00,,,0.00,Wunderground v.1.12,2013-02-11 20:20:00,
2013-02-11 15:30:00,35.8,24.8,29.70,WSW,248,13.0,28.0,64,0.00,,,0.00,Wunderground v.1.12,2013-02-11 20:30:00,
2013-02-11 15:40:00,35.9,24.5,29.70,WSW,246,13.0,18.0,63,0.00,,,0.00,Wunderground v.1.12,2013-02-11 20:40:00,
2013-02-11 15:50:00,36.0,24.2,29.70,WSW,258,12.0,12.0,62,0.00,,,0.00,Wunderground v.1.12,2013-02-11 20:50:00,
2013-02-11 16:00:00,36.0,24.6,29.71,SW,225,12.0,34.0,63,0.00,,,0.00,Wunderground v.1.12,2013-02-11 21:00:00,
2013-02-11 16:10:00,35.9,24.9,29.71,SW,226,13.0,16.0,64,0.00,,,0.00,Wunderground v.1.12,2013-02-11 21:10:00,
2013-02-11 16:20:00,35.8,25.2,29.71,SW,224,13.0,13.0,65,0.00,,,0.00,Wunderground v.1.12,2013-02-11 21:20:00,
2013-02-11 16:30:00,35.8,25.2,29.73,WSW,248,13.0,27.0,65,0.00,,,0.00,Wunderground v.1.12,2013-02-11 21:30:00,
2013-02-11 16:40:00,35.6,25.0,29.73,SSW,212,12.0,18.0,65,0.00,,,0.00,Wunderground v.1.12,2013-02-11 21:40:00,
2013-02-11 16:50:00,35.6,25.0,29.73,WSW,248,13.0,28.0,65,0.00,,,0.00,Wunderground v.1.12,2013-02-11 21:50:00,
2013-02-11 17:00:00,35.6,24.6,29.73,SW,225,12.0,30.0,64,0.00,,,0.00,Wunderground v.1.12,2013-02-11 22:00:00,
2013-02-11 17:10:00,35.6,24.6,29.73,SSW,203,13.0,13.0,64,0.00,,,0.00,Wunderground v.1.12,2013-02-11 22:10:00,
2013-02-11 17:20:00,35.6,24.2,29.74,SW,220,13.0,13.0,63,0.00,,,0.00,Wunderground v.1.12,2013-02-11 22:20:00,
2013-02-11 17:30:00,35.6,24.2,29.74,WSW,248,12.0,32.0,63,0.00,,,0.00,Wunderground v.1.12,2013-02-11 22:30:00,
2013-02-11 17:40:00,35.5,24.1,29.74,SW,217,14.0,14.0,63,0.00,,,0.00,Wunderground v.1.12,2013-02-11 22:40:00,
2013-02-11 17:50:00,35.5,24.5,29.75,SW,225,14.0,30.0,64,0.00,,,0.00,Wunderground v.1.12,2013-02-11 22:50:00,
2013-02-11 18:00:00,35.5,24.5,29.75,WSW,248,13.0,27.0,64,0.00,,,0.00,Wunderground v.1.12,2013-02-11 23:00:00,
2013-02-11 18:10:00,35.3,25.1,29.75,WSW,251,12.0,12.0,66,0.00,,,0.00,Wunderground v.1.12,2013-02-11 23:10:00,
2013-02-11 18:20:00,35.2,24.6,29.76,SW,227,11.0,11.0,65,0.00,,,0.00,Wunderground v.1.12,2013-02-11 23:20:00,
2013-02-11 18:40:00,35.0,24.4,29.77,SW,225,11.0,26.0,65,0.00,,,0.00,Wunderground v.1.12,2013-02-11 23:40:00,
2013-02-11 18:50:00,34.9,23.6,29.78,SW,233,14.0,14.0,63,0.00,,,0.00,Wunderground v.1.12,2013-02-11 23:50:00,
2013-02-11 19:10:00,34.7,23.8,29.78,SW,224,13.0,17.0,64,0.00,,,0.00,Wunderground v.1.12,2013-02-12 00:10:00,
2013-02-11 19:20:00,34.7,24.1,29.79,WSW,248,11.0,12.0,65,0.00,,,0.00,Wunderground v.1.12,2013-02-12 00:20:00,
2013-02-11 19:30:00,34.6,24.0,29.80,WSW,248,11.0,25.0,65,0.00,,,0.00,Wunderground v.1.12,2013-02-12 00:30:00,
2013-02-11 19:40:00,34.6,23.7,29.80,West,267,12.0,12.0,64,0.00,,,0.00,Wunderground v.1.12,2013-02-12 00:40:00,
2013-02-11 19:50:00,34.6,23.7,29.80,WNW,284,11.0,12.0,64,0.00,,,0.00,Wunderground v.1.12,2013-02-12 00:50:00,
2013-02-11 20:00:00,34.4,23.5,29.80,WSW,248,11.0,22.0,64,0.00,,,0.00,Wunderground v.1.12,2013-02-12 01:00:00,
2013-02-11 20:10:00,34.4,23.1,29.80,West,278,11.0,12.0,63,0.00,,,0.00,Wunderground v.1.12,2013-02-12 01:10:00,
2013-02-11 20:20:00,34.4,23.1,29.81,WSW,251,11.0,11.0,63,0.00,,,0.00,Wunderground v.1.12,2013-02-12 01:20:00,
2013-02-11 20:30:00,34.3,23.4,29.81,WSW,248,10.0,25.0,64,0.00,,,0.00,Wunderground v.1.12,2013-02-12 01:30:00,
2013-02-11 20:40:00,34.3,23.0,29.81,West,263,13.0,17.0,63,0.00,,,0.00,Wunderground v.1.12,2013-02-12 01:40:00,
2013-02-11 20:50:00,34.3,23.0,29.82,West,270,12.0,29.0,63,0.00,,,0.00,Wunderground v.1.12,2013-02-12 01:50:00,
2013-02-11 21:00:00,34.1,23.2,29.83,West,270,9.0,21.0,64,0.00,,,0.00,Wunderground v.1.12,2013-02-12 02:00:00,
2013-02-11 21:10:00,34.1,22.8,29.82,WNW,302,10.0,10.0,63,0.00,,,0.00,Wunderground v.1.12,2013-02-12 02:10:00,
2013-02-11 21:20:00,34.1,22.8,29.83,West,268,10.0,10.0,63,0.00,,,0.00,Wunderground v.1.12,2013-02-12 02:20:00,
2013-02-11 21:30:00,34.0,23.1,29.83,West,270,8.0,24.0,64,0.00,,,0.00,Wunderground v.1.12,2013-02-12 02:30:00,
2013-02-11 21:40:00,33.8,22.9,29.83,SSW,210,10.0,10.0,64,0.00,,,0.00,Wunderground v.1.12,2013-02-12 02:40:00,
2013-02-11 21:50:00,33.8,22.9,29.84,WSW,248,9.0,20.0,64,0.00,,,0.00,Wunderground v.1.12,2013-02-12 02:50:00,
2013-02-11 22:00:00,33.7,23.2,29.84,West,270,11.0,26.0,65,0.00,,,0.00,Wunderground v.1.12,2013-02-12 03:00:00,
2013-02-11 22:10:00,33.5,23.0,29.84,West,263,11.0,14.0,65,0.00,,,0.00,Wunderground v.1.12,2013-02-12 03:10:00,
2013-02-11 22:20:00,33.4,22.9,29.84,WSW,247,13.0,13.0,65,0.00,,,0.00,Wunderground v.1.12,2013-02-12 03:20:00,
2013-02-11 22:30:00,33.4,23.3,29.85,West,270,11.0,22.0,66,0.00,,,0.00,Wunderground v.1.12,2013-02-12 03:30:00,
2013-02-11 22:40:00,33.2,23.1,29.85,WSW,253,9.0,10.0,66,0.00,,,0.00,Wunderground v.1.12,2013-02-12 03:40:00,
2013-02-11 22:50:00,33.2,23.1,29.85,WNW,282,9.0,9.0,66,0.00,,,0.00,Wunderground v.1.12,2013-02-12 03:50:00,
2013-02-11 23:00:00,33.2,23.1,29.85,West,270,9.0,20.0,66,0.00,,,0.00,Wunderground v.1.12,2013-02-12 04:00:00,
2013-02-11 23:10:00,33.2,23.4,29.85,SSW,209,7.0,9.0,67,0.00,,,0.00,Wunderground v.1.12,2013-02-12 04:10:00,
2013-02-11 23:20:00,33.1,23.3,29.86,WSW,248,9.0,9.0,67,0.00,,,0.00,Wunderground v.1.12,2013-02-12 04:20:00,
2013-02-11 23:30:00,32.9,23.1,29.85,West,270,8.0,22.0,67,0.00,,,0.00,Wunderground v.1.12,2013-02-12 04:30:00,
2013-02-11 23:40:00,32.9,23.1,29.86,West,270,9.0,9.0,67,0.00,,,0.00,Wunderground v.1.12,2013-02-12 04:40:00,
2013-02-11 23:50:00,32.9,23.1,29.87,West,270,9.0,19.0,67,0.00,,,0.00,Wunderground v.1.12,2013-02-12 04:50:00,